Погода в Мужах

Россия / Ямало-Ненецкий автономный округ     65°24′01″N   64°42′20″E
темп.,
°C
ветер,
м/с
пор.,
м/с
влажн.,
%
обл.,
%
осадки,
мм/ч
давл.,
гПа
погр.,
м
22 января, пт
пт2223:00−35ссв5895100 0.2 1023311
02:00−39с4798100 0.0 1023134
05:00−40с459898 0.0 102585
08:00−41с349877 0.0 102667
11:00−41с349873 0.0 102752
14:00−40с239768 0.0 102942
17:00−41с239760 0.0 103022
20:00−41с229834 0.0 103018
23 января, сб
сб2323:00−41ссз119830 0.0 103218
02:00−41ссз119838 0.0 103218
05:00−41ссз119850 0.0 103318
08:00−41сз019923 0.0 103418
11:00−41ссв119937 0.0 103518
14:00−40ссв009822 0.0 103618
17:00−41в0010024 0.0 103718
20:00−41юв0110021 0.0 103718
24 января, вс
вс2423:00−41ю119924 0.0 103718
02:00−41ю119825 0.0 103818
05:00−41ю119725 0.0 103818
08:00−41ю229623 0.0 103918
11:00−41ю239623 0.0 103923
14:00−40ю239573 0.0 103944
17:00−39ююв349587 0.0 103957
20:00−38ююв3495100 0.0 103999
25 января, пн
пн2523:00−37ююв3595100 0.0 1038125
02:00−35ююв3696100 0.0 1038194
05:00−35ююв2497100 0.1 1037138
08:00−35ююв2398100 0.0 103759
11:00−33ююв2497100 0.1 1037248
14:00−31ююв3596100 0.1 1037358
17:00−30ююв3598100 0.4 1036367
20:00−30ююв3698100 0.3 1036323
26 января, вт
вт2623:00−29ю3597100 0.4 1035347
02:00−29ю3697100 0.1 1034367
05:00−28ю3696100 0.4 1033395
08:00−28ю4796100 0.2 1031372
11:00−27ю5897100 0.4 1029424
14:00−26ю5997100 0.8 1026472
17:00−24ю5998100 2.1 1024509
20:00−23ю4898100 1.4 1021449